Location: Nasgenstadt
(48.2786°N, 9.7553°E)
Time: 21:01:18
(UTC+01:00)

ISS - Pass Details

Date: 09 January 2018
Orbit: 402 x 407 km, 51.6° (Epoch: 23 January)

Event Time Altitude Azimuth Distance (km) Brightness Sun altitude
Exits shadow 05:48:11 37° 51° (NE) 648 -2.5 -22.8°
Drops below altitude 10° 05:50:35 10° 83° (E) 1,469 0.0 -22.4°
Sets 05:52:43 0° 90° (E) 2,330 1.5 -22.1°
